Year,Month,Day,Hour,Minute,Value (Times are PST for temperature in C)
2012,11,10,00,00,-0.90
2012,11,10,00,01,-0.80
2012,11,10,00,02,-0.80
2012,11,10,00,03,-0.80
2012,11,10,00,04,-0.80
2012,11,10,00,05,-0.80
2012,11,10,00,06,-0.80
2012,11,10,00,07,-0.80
2012,11,10,00,08,-0.80
2012,11,10,00,09,-0.80
2012,11,10,00,10,-0.80
2012,11,10,00,11,-0.80
2012,11,10,00,12,-0.80
2012,11,10,00,18,-0.80
2012,11,10,00,19,-0.80
2012,11,10,00,20,-0.80
2012,11,10,00,21,-0.80
2012,11,10,00,22,-0.80
2012,11,10,00,23,-0.80
2012,11,10,00,24,-0.80
2012,11,10,00,25,-0.80
2012,11,10,00,26,-0.80
2012,11,10,00,27,-0.70
2012,11,10,00,28,-0.70
2012,11,10,00,29,-0.70
2012,11,10,00,30,-0.70
2012,11,10,00,31,-0.60
2012,11,10,00,32,-0.60
2012,11,10,00,33,-0.60
2012,11,10,00,34,-0.60
2012,11,10,00,35,-0.60
2012,11,10,00,36,-0.50
2012,11,10,00,37,-0.50
2012,11,10,00,38,-0.50
2012,11,10,00,39,-0.50
2012,11,10,00,40,-0.50
2012,11,10,00,41,-0.40
2012,11,10,00,42,-0.40
2012,11,10,00,43,-0.40
2012,11,10,00,44,-0.40
2012,11,10,00,45,-0.40
2012,11,10,00,46,-0.40
2012,11,10,00,47,-0.40
2012,11,10,00,48,-0.40
2012,11,10,00,49,-0.40
2012,11,10,00,50,-0.40
2012,11,10,00,51,-0.40
2012,11,10,00,52,-0.50
2012,11,10,00,53,-0.50
2012,11,10,00,54,-0.50
2012,11,10,00,55,-0.50
2012,11,10,00,56,-0.50
2012,11,10,00,57,-0.50
2012,11,10,00,58,-0.50
2012,11,10,00,59,-0.50
2012,11,10,01,00,-0.50
2012,11,10,01,01,-0.50
2012,11,10,01,02,-0.40
2012,11,10,01,03,-0.40
2012,11,10,01,04,-0.40
2012,11,10,01,05,-0.40
2012,11,10,01,06,-0.40
2012,11,10,01,07,-0.30
2012,11,10,01,08,-0.30
2012,11,10,01,09,-0.30
2012,11,10,01,10,-0.30
2012,11,10,01,11,-0.30
2012,11,10,01,12,-0.30
2012,11,10,01,13,-0.30
2012,11,10,01,14,-0.30
2012,11,10,01,15,-0.30
2012,11,10,01,16,-0.30
2012,11,10,01,17,-0.30
2012,11,10,01,18,-0.30
2012,11,10,01,19,-0.30
2012,11,10,01,20,-0.30
2012,11,10,01,21,-0.30
2012,11,10,01,22,-0.30
2012,11,10,01,23,-0.30
2012,11,10,01,24,-0.30
2012,11,10,01,25,-0.30
2012,11,10,01,26,-0.30
2012,11,10,01,27,-0.30
2012,11,10,01,28,-0.40
2012,11,10,01,29,-0.40
2012,11,10,01,30,-0.40
2012,11,10,01,31,-0.40
2012,11,10,01,32,-0.30
2012,11,10,01,33,-0.30
2012,11,10,01,34,-0.30
2012,11,10,01,35,-0.30
2012,11,10,01,36,-0.30
2012,11,10,01,37,-0.30
2012,11,10,01,38,-0.30
2012,11,10,01,39,-0.30
2012,11,10,01,40,-0.30
2012,11,10,01,41,-0.30
2012,11,10,01,42,-0.30
2012,11,10,01,43,-0.30
2012,11,10,01,44,-0.30
2012,11,10,01,45,-0.20
2012,11,10,01,46,-0.20
2012,11,10,01,47,-0.20
2012,11,10,01,48,-0.20
2012,11,10,01,49,-0.20
2012,11,10,01,50,-0.20
2012,11,10,01,51,-0.20
2012,11,10,01,52,-0.20
2012,11,10,01,53,-0.20
2012,11,10,01,54,-0.20
2012,11,10,01,55,-0.20
2012,11,10,01,56,-0.20
2012,11,10,01,57,-0.20
2012,11,10,01,58,-0.20
2012,11,10,01,59,-0.20
2012,11,10,02,00,-0.20
2012,11,10,02,01,-0.20
2012,11,10,02,02,-0.20
2012,11,10,02,03,-0.20
2012,11,10,02,04,-0.20
2012,11,10,02,05,-0.20
2012,11,10,02,06,-0.20
2012,11,10,02,07,-0.20
2012,11,10,02,08,-0.20
2012,11,10,02,09,-0.20
2012,11,10,02,10,-0.20
2012,11,10,02,11,-0.20
2012,11,10,02,12,-0.20
2012,11,10,02,13,-0.20
2012,11,10,02,14,-0.20
2012,11,10,02,15,-0.20
2012,11,10,02,16,-0.20
2012,11,10,02,17,-0.20
2012,11,10,02,18,-0.30
2012,11,10,02,19,-0.30
2012,11,10,02,20,-0.30
2012,11,10,02,21,-0.30
2012,11,10,02,22,-0.30
2012,11,10,02,23,-0.30
2012,11,10,02,24,-0.30
2012,11,10,02,25,-0.30
2012,11,10,02,26,-0.30
2012,11,10,02,27,-0.30
2012,11,10,02,28,-0.30
2012,11,10,02,29,-0.30
2012,11,10,02,30,-0.30
2012,11,10,02,31,-0.30
2012,11,10,02,32,-0.30
2012,11,10,02,33,-0.30
2012,11,10,02,34,-0.30
2012,11,10,02,35,-0.30
2012,11,10,02,36,-0.30
2012,11,10,02,37,-0.30
2012,11,10,02,38,-0.30
2012,11,10,02,39,-0.30
2012,11,10,02,40,-0.40
2012,11,10,02,41,-0.40
2012,11,10,02,42,-0.40
2012,11,10,02,43,-0.40
2012,11,10,02,44,-0.40
2012,11,10,02,45,-0.40
2012,11,10,02,46,-0.40
2012,11,10,02,47,-0.40
2012,11,10,02,48,-0.40
2012,11,10,02,49,-0.50
2012,11,10,02,50,-0.50
2012,11,10,02,51,-0.50
2012,11,10,02,52,-0.50
2012,11,10,02,53,-0.50
2012,11,10,02,54,-0.60
2012,11,10,02,55,-0.60
2012,11,10,02,56,-0.60
2012,11,10,02,57,-0.60
2012,11,10,02,58,-0.60
2012,11,10,02,59,-0.70
2012,11,10,03,00,-0.70
2012,11,10,03,01,-0.70
2012,11,10,03,02,-0.70
2012,11,10,03,03,-0.70
2012,11,10,03,04,-0.80
2012,11,10,03,05,-0.80
2012,11,10,03,06,-0.80
2012,11,10,03,07,-0.80
2012,11,10,03,08,-0.80
2012,11,10,03,09,-0.90
2012,11,10,03,10,-0.90
2012,11,10,03,11,-0.90
2012,11,10,03,12,-0.90
2012,11,10,03,13,-0.90
2012,11,10,03,14,-1.00
2012,11,10,03,15,-1.00
2012,11,10,03,16,-1.00
2012,11,10,03,17,-1.00
2012,11,10,03,18,-1.00
2012,11,10,03,19,-1.10
2012,11,10,03,20,-1.10
2012,11,10,03,21,-1.10
2012,11,10,03,22,-1.10
2012,11,10,03,23,-1.10
2012,11,10,03,24,-1.10
2012,11,10,03,25,-1.10
2012,11,10,03,26,-1.10
2012,11,10,03,27,-1.20
2012,11,10,03,28,-1.20
2012,11,10,03,29,-1.20
2012,11,10,03,30,-1.20
2012,11,10,03,31,-1.30
2012,11,10,03,32,-1.30
2012,11,10,03,33,-1.30
2012,11,10,03,34,-1.30
2012,11,10,03,35,-1.40
2012,11,10,03,36,-1.40
2012,11,10,03,37,-1.40
2012,11,10,03,38,-1.40
2012,11,10,03,39,-1.40
2012,11,10,03,40,-1.40
2012,11,10,03,41,-1.40
2012,11,10,03,42,-1.40
2012,11,10,03,43,-1.40
2012,11,10,03,44,-1.50
2012,11,10,03,45,-1.50
2012,11,10,03,46,-1.40
2012,11,10,03,47,-1.50
2012,11,10,03,48,-1.50
2012,11,10,03,49,-1.50
2012,11,10,03,50,-1.50
2012,11,10,03,51,-1.50
2012,11,10,03,52,-1.50
2012,11,10,03,53,-1.50
2012,11,10,03,54,-1.60
2012,11,10,03,55,-1.60
2012,11,10,03,56,-1.60
2012,11,10,03,57,-1.60
2012,11,10,03,58,-1.60
2012,11,10,03,59,-1.60
2012,11,10,04,00,-1.60
2012,11,10,04,01,-1.60
2012,11,10,04,02,-1.70
2012,11,10,04,03,-1.70
2012,11,10,04,04,-1.70
2012,11,10,04,05,-1.70
2012,11,10,04,06,-1.70
2012,11,10,04,07,-1.80
2012,11,10,04,08,-1.80
2012,11,10,04,09,-1.80
2012,11,10,04,10,-1.80
2012,11,10,04,11,-1.80
2012,11,10,04,12,-1.80
2012,11,10,04,13,-1.80
2012,11,10,04,14,-1.80
2012,11,10,04,15,-1.90
2012,11,10,04,16,-1.90
2012,11,10,04,17,-1.90
2012,11,10,04,18,-1.90
2012,11,10,04,19,-1.90
2012,11,10,04,20,-1.90
2012,11,10,04,21,-1.90
2012,11,10,04,22,-2.00
2012,11,10,04,23,-2.00
2012,11,10,04,24,-2.00
2012,11,10,04,25,-2.10
2012,11,10,04,26,-2.10
2012,11,10,04,27,-2.10
2012,11,10,04,28,-2.10
2012,11,10,04,29,-2.10
2012,11,10,04,30,-2.10
2012,11,10,04,31,-2.10
2012,11,10,04,32,-2.20
2012,11,10,04,33,-2.20
2012,11,10,04,34,-2.20
2012,11,10,04,35,-2.20
2012,11,10,04,36,-2.20
2012,11,10,04,37,-2.20
2012,11,10,04,38,-2.20
2012,11,10,04,39,-2.20
2012,11,10,04,40,-2.20
2012,11,10,04,41,-2.20
2012,11,10,04,42,-2.20
2012,11,10,04,43,-2.20
2012,11,10,04,44,-2.20
2012,11,10,04,45,-2.20
2012,11,10,04,46,-2.20
2012,11,10,04,47,-2.20
2012,11,10,04,48,-2.20
2012,11,10,04,49,-2.20
2012,11,10,04,50,-2.20
2012,11,10,04,51,-2.10
2012,11,10,04,52,-2.10
2012,11,10,04,53,-2.10
2012,11,10,04,54,-2.10
2012,11,10,04,55,-2.10
2012,11,10,04,56,-2.10
2012,11,10,04,57,-2.20
2012,11,10,04,58,-2.20
2012,11,10,04,59,-2.20
2012,11,10,05,00,-2.20
2012,11,10,05,01,-2.20
2012,11,10,05,02,-2.20
2012,11,10,05,03,-2.20
2012,11,10,05,04,-2.20
2012,11,10,05,05,-2.20
2012,11,10,05,06,-2.30
2012,11,10,05,07,-2.30
2012,11,10,05,08,-2.30
2012,11,10,05,09,-2.20
2012,11,10,05,10,-2.20
2012,11,10,05,11,-2.30
2012,11,10,05,12,-2.30
2012,11,10,05,13,-2.30
2012,11,10,05,14,-2.30
2012,11,10,05,15,-2.30
2012,11,10,05,16,-2.30
2012,11,10,05,17,-2.30
2012,11,10,05,18,-2.40
2012,11,10,05,19,-2.40
2012,11,10,05,20,-2.40
2012,11,10,05,21,-2.40
2012,11,10,05,22,-2.40
2012,11,10,05,23,-2.40
2012,11,10,05,24,-2.40
2012,11,10,05,25,-2.40
2012,11,10,05,26,-2.40
2012,11,10,05,27,-2.40
2012,11,10,05,28,-2.40
2012,11,10,05,29,-2.50
2012,11,10,05,30,-2.50
2012,11,10,05,31,-2.50
2012,11,10,05,32,-2.50
2012,11,10,05,33,-2.50
2012,11,10,05,34,-2.50
2012,11,10,05,35,-2.50
2012,11,10,05,36,-2.60
2012,11,10,05,37,-2.60
2012,11,10,05,38,-2.60
2012,11,10,05,39,-2.60
2012,11,10,05,40,-2.50
2012,11,10,05,41,-2.50
2012,11,10,05,42,-2.50
2012,11,10,05,43,-2.50
2012,11,10,05,44,-2.50
2012,11,10,05,45,-2.50
2012,11,10,05,46,-2.50
2012,11,10,05,47,-2.60
2012,11,10,05,48,-2.60
2012,11,10,05,49,-2.60
2012,11,10,05,50,-2.60
2012,11,10,05,51,-2.60
2012,11,10,05,52,-2.60
2012,11,10,05,53,-2.60
2012,11,10,05,54,-2.60
2012,11,10,05,55,-2.60
2012,11,10,05,56,-2.60
2012,11,10,05,57,-2.60
2012,11,10,05,58,-2.60
2012,11,10,05,59,-2.60
2012,11,10,06,00,-2.60
2012,11,10,06,01,-2.60
2012,11,10,06,02,-2.60
2012,11,10,06,03,-2.60
2012,11,10,06,04,-2.60
2012,11,10,06,05,-2.50
2012,11,10,06,06,-2.60
2012,11,10,06,07,-2.50
2012,11,10,06,08,-2.50
2012,11,10,06,09,-2.50
2012,11,10,06,10,-2.50
2012,11,10,06,11,-2.50
2012,11,10,06,12,-2.50
2012,11,10,06,13,-2.50
2012,11,10,06,14,-2.40
2012,11,10,06,15,-2.40
2012,11,10,06,16,-2.40
2012,11,10,06,17,-2.40
2012,11,10,06,18,-2.40
2012,11,10,06,19,-2.40
2012,11,10,06,20,-2.40
2012,11,10,06,21,-2.40
2012,11,10,06,22,-2.40
2012,11,10,06,23,-2.40
2012,11,10,06,24,-2.40
2012,11,10,06,25,-2.40
2012,11,10,06,26,-2.40
2012,11,10,06,27,-2.40
2012,11,10,06,28,-2.40
2012,11,10,06,29,-2.30
2012,11,10,06,30,-2.30
2012,11,10,06,31,-2.30
2012,11,10,06,32,-2.30
2012,11,10,06,33,-2.30
2012,11,10,06,34,-2.30
2012,11,10,06,35,-2.20
2012,11,10,06,36,-2.20
2012,11,10,06,37,-2.20
2012,11,10,06,38,-2.20
2012,11,10,06,39,-2.20
2012,11,10,06,40,-2.20
2012,11,10,06,41,-2.20
2012,11,10,06,42,-2.20
2012,11,10,06,43,-2.20
2012,11,10,06,44,-2.20
2012,11,10,06,45,-2.10
2012,11,10,06,46,-2.10
2012,11,10,06,47,-2.10
2012,11,10,06,48,-2.10
2012,11,10,06,49,-2.10
2012,11,10,06,50,-2.10
2012,11,10,06,51,-2.10
2012,11,10,06,52,-2.10
2012,11,10,06,53,-2.10
2012,11,10,06,54,-2.10
2012,11,10,06,55,-2.10
2012,11,10,06,56,-2.00
2012,11,10,06,57,-2.00
2012,11,10,06,58,-2.00
2012,11,10,06,59,-2.00
2012,11,10,07,00,-2.00
2012,11,10,07,01,-2.00
2012,11,10,07,02,-2.00
2012,11,10,07,03,-2.00
2012,11,10,07,04,-2.00
2012,11,10,07,05,-2.00
2012,11,10,07,06,-2.00
2012,11,10,07,07,-1.90
2012,11,10,07,08,-1.90
2012,11,10,07,09,-1.90
2012,11,10,07,10,-1.90
2012,11,10,07,11,-1.90
2012,11,10,07,12,-1.90
2012,11,10,07,13,-1.90
2012,11,10,07,14,-1.90
2012,11,10,07,15,-1.90
2012,11,10,07,16,-1.90
2012,11,10,07,17,-1.90
2012,11,10,07,18,-1.90
2012,11,10,07,19,-1.80
2012,11,10,07,20,-1.80
2012,11,10,07,21,-1.80
2012,11,10,07,22,-1.80
2012,11,10,07,23,-1.80
2012,11,10,07,24,-1.80
2012,11,10,07,25,-1.80
2012,11,10,07,26,-1.80
2012,11,10,07,27,-1.80
2012,11,10,07,28,-1.80
2012,11,10,07,29,-1.80
2012,11,10,07,30,-1.80
2012,11,10,07,31,-1.80
2012,11,10,07,32,-1.80
2012,11,10,07,33,-1.80
2012,11,10,07,34,-1.80
2012,11,10,07,35,-1.80
2012,11,10,07,36,-1.90
2012,11,10,07,37,-1.90
2012,11,10,07,38,-1.90
2012,11,10,07,39,-1.90
2012,11,10,07,40,-1.90
2012,11,10,07,41,-1.90
2012,11,10,07,42,-1.90
2012,11,10,07,43,-1.90
2012,11,10,07,44,-1.90
2012,11,10,07,45,-1.90
2012,11,10,07,46,-1.90
2012,11,10,07,47,-1.90
2012,11,10,07,48,-1.90
2012,11,10,07,49,-1.90
2012,11,10,07,50,-2.00
2012,11,10,07,51,-2.00
2012,11,10,07,52,-2.00
2012,11,10,07,53,-2.00
2012,11,10,07,54,-2.00
2012,11,10,07,55,-2.00
2012,11,10,07,56,-2.00
2012,11,10,07,57,-2.00
2012,11,10,07,58,-2.00
2012,11,10,07,59,-2.00
2012,11,10,08,00,-2.00
2012,11,10,08,01,-2.00
2012,11,10,08,02,-2.00
2012,11,10,08,03,-2.00
2012,11,10,08,04,-2.00
2012,11,10,08,05,-2.00
2012,11,10,08,06,-2.00
2012,11,10,08,07,-2.00
2012,11,10,08,08,-2.00
2012,11,10,08,09,-2.00
2012,11,10,08,10,-2.00
2012,11,10,08,11,-2.00
2012,11,10,08,12,-2.00
2012,11,10,08,13,-2.00
2012,11,10,08,14,-2.00
2012,11,10,08,15,-2.00
2012,11,10,08,16,-1.90
2012,11,10,08,17,-1.90
2012,11,10,08,18,-1.90
2012,11,10,08,19,-1.90
2012,11,10,08,20,-1.90
2012,11,10,08,21,-1.90
2012,11,10,08,22,-1.90
2012,11,10,08,23,-1.90
2012,11,10,08,24,-1.80
2012,11,10,08,25,-1.80
2012,11,10,08,26,-1.80
2012,11,10,08,27,-1.70
2012,11,10,08,28,-1.70
2012,11,10,08,29,-1.60
2012,11,10,08,30,-1.60
2012,11,10,08,31,-1.50
2012,11,10,08,32,-1.50
2012,11,10,08,33,-1.50
2012,11,10,08,34,-1.40
2012,11,10,08,35,-1.40
2012,11,10,08,36,-1.30
2012,11,10,08,37,-1.30
2012,11,10,08,38,-1.20
2012,11,10,08,39,-1.20
2012,11,10,08,40,-1.20
2012,11,10,08,41,-1.10
2012,11,10,08,42,-1.10
2012,11,10,08,43,-1.10
2012,11,10,08,44,-1.00
2012,11,10,08,45,-1.00
2012,11,10,08,46,-1.00
2012,11,10,08,47,-0.90
2012,11,10,08,48,-0.90
2012,11,10,08,49,-0.90
2012,11,10,08,50,-0.90
2012,11,10,08,51,-0.80
2012,11,10,08,52,-0.80
2012,11,10,08,53,-0.80
2012,11,10,08,54,-0.80
2012,11,10,08,55,-0.80
2012,11,10,08,56,-0.70
2012,11,10,08,57,-0.70
2012,11,10,08,58,-0.70
2012,11,10,08,59,-0.70
2012,11,10,09,00,-0.60
2012,11,10,09,01,-0.60
2012,11,10,09,02,-0.50
2012,11,10,09,03,-0.50
2012,11,10,09,04,-0.40
2012,11,10,09,05,-0.40
2012,11,10,09,06,-0.30
2012,11,10,09,07,-0.30
2012,11,10,09,08,-0.30
2012,11,10,09,09,-0.20
2012,11,10,09,10,-0.20
2012,11,10,09,11,-0.10
2012,11,10,09,12,-0.10
2012,11,10,09,13,-0.10
2012,11,10,09,14,-0.10
2012,11,10,09,15,-0.10
2012,11,10,09,16,0.00
2012,11,10,09,17,0.00
2012,11,10,09,18,0.10
2012,11,10,09,19,0.10
2012,11,10,09,20,0.10
2012,11,10,09,21,0.20
2012,11,10,09,22,0.20
2012,11,10,09,23,0.30
2012,11,10,09,24,0.30
2012,11,10,09,25,0.40
2012,11,10,09,26,0.40
2012,11,10,09,27,0.50
2012,11,10,09,28,0.60
2012,11,10,09,29,0.60
2012,11,10,09,30,0.70
2012,11,10,09,31,0.70
2012,11,10,09,32,0.80
2012,11,10,09,33,0.90
2012,11,10,09,34,0.90
2012,11,10,09,35,1.00
2012,11,10,09,36,1.10
2012,11,10,09,37,1.20
2012,11,10,09,38,1.30
2012,11,10,09,39,1.30
2012,11,10,09,40,1.30
2012,11,10,09,41,1.30
2012,11,10,09,42,1.40
2012,11,10,09,43,1.40
2012,11,10,09,44,1.50
2012,11,10,09,45,1.60
2012,11,10,09,46,1.60
2012,11,10,09,47,1.70
2012,11,10,09,48,1.70
2012,11,10,09,49,1.80
2012,11,10,09,50,1.80
2012,11,10,09,51,1.80
2012,11,10,09,52,1.80
2012,11,10,09,53,1.80
2012,11,10,09,54,1.80
2012,11,10,09,55,1.80
2012,11,10,09,56,1.80
2012,11,10,09,57,1.80
2012,11,10,09,58,1.80
2012,11,10,09,59,1.90
2012,11,10,10,00,1.90
2012,11,10,10,01,1.90
2012,11,10,10,02,1.90
2012,11,10,10,03,2.00
2012,11,10,10,04,2.00
2012,11,10,10,05,2.10
2012,11,10,10,06,2.10
2012,11,10,10,07,2.20
2012,11,10,10,08,2.20
2012,11,10,10,09,2.30
2012,11,10,10,10,2.40
2012,11,10,10,11,2.50
2012,11,10,10,12,2.50
2012,11,10,10,13,2.60
2012,11,10,10,14,2.70
2012,11,10,10,15,2.80
2012,11,10,10,16,2.90
2012,11,10,10,17,3.00
2012,11,10,10,18,3.10
2012,11,10,10,19,3.20
2012,11,10,10,20,3.30
2012,11,10,10,21,3.30
2012,11,10,10,22,3.40
2012,11,10,10,23,3.50
2012,11,10,10,24,3.60
2012,11,10,10,25,3.60
2012,11,10,10,26,3.70
2012,11,10,10,27,3.80
2012,11,10,10,28,3.80
2012,11,10,10,29,3.90
2012,11,10,10,30,4.00
2012,11,10,10,31,4.00
2012,11,10,10,32,4.00
2012,11,10,10,33,4.10
2012,11,10,10,34,4.10
2012,11,10,10,35,4.10
2012,11,10,10,36,4.10
2012,11,10,10,37,4.10
2012,11,10,10,38,4.20
2012,11,10,10,39,4.20
2012,11,10,10,40,4.20
2012,11,10,10,41,4.30
2012,11,10,10,42,4.30
2012,11,10,10,43,4.30
2012,11,10,10,44,4.30
2012,11,10,10,45,4.40
2012,11,10,10,46,4.40
2012,11,10,10,47,4.40
2012,11,10,10,48,4.50
2012,11,10,10,49,4.60
2012,11,10,10,50,4.60
2012,11,10,10,51,4.70
2012,11,10,10,52,4.70
2012,11,10,10,53,4.70
2012,11,10,10,54,4.70
2012,11,10,10,55,4.70
2012,11,10,10,56,4.70
2012,11,10,10,57,4.70
2012,11,10,10,58,4.70
2012,11,10,10,59,4.70
2012,11,10,11,00,4.70
2012,11,10,11,01,4.70
2012,11,10,11,02,4.70
2012,11,10,11,03,4.70
2012,11,10,11,04,4.70
2012,11,10,11,05,4.70
2012,11,10,11,06,4.70
2012,11,10,11,07,4.70
2012,11,10,11,08,4.70
2012,11,10,11,09,4.70
2012,11,10,11,10,4.70
2012,11,10,11,11,4.70
2012,11,10,11,12,4.70
2012,11,10,11,13,4.70
2012,11,10,11,14,4.70
2012,11,10,11,15,4.70
2012,11,10,11,16,4.70
2012,11,10,11,17,4.70
2012,11,10,11,18,4.70
2012,11,10,11,19,4.70
2012,11,10,11,20,4.70
2012,11,10,11,21,4.80
2012,11,10,11,22,4.70
2012,11,10,11,23,4.70
2012,11,10,11,24,4.70
2012,11,10,11,25,4.70
2012,11,10,11,26,4.70
2012,11,10,11,27,4.70
2012,11,10,11,28,4.70
2012,11,10,11,29,4.80
2012,11,10,11,30,4.80
2012,11,10,11,31,4.80
2012,11,10,11,32,4.80
2012,11,10,11,33,4.80
2012,11,10,11,34,4.80
2012,11,10,11,35,4.80
2012,11,10,11,36,4.80
2012,11,10,11,37,4.80
2012,11,10,11,38,4.80
2012,11,10,11,39,4.80
2012,11,10,11,40,4.80
2012,11,10,11,41,4.80
2012,11,10,11,42,4.80
2012,11,10,11,43,4.80
2012,11,10,11,44,4.70
2012,11,10,11,45,4.70
2012,11,10,11,46,4.80
2012,11,10,11,47,4.80
2012,11,10,11,48,4.80
2012,11,10,11,49,4.80
2012,11,10,11,50,4.90
2012,11,10,11,51,4.90
2012,11,10,11,52,5.00
2012,11,10,11,53,5.10
2012,11,10,11,54,5.10
2012,11,10,11,55,5.20
2012,11,10,11,56,5.10
2012,11,10,11,57,5.10
2012,11,10,11,58,5.10
2012,11,10,11,59,5.10
2012,11,10,12,00,5.10
2012,11,10,12,01,5.10
2012,11,10,12,02,5.10
2012,11,10,12,03,5.10
2012,11,10,12,04,5.10
2012,11,10,12,05,5.20
2012,11,10,12,06,5.20
2012,11,10,12,07,5.20
2012,11,10,12,08,5.10
2012,11,10,12,09,5.10
2012,11,10,12,10,5.20
2012,11,10,12,11,5.20
2012,11,10,12,12,5.20
2012,11,10,12,13,5.30
2012,11,10,12,14,5.30
2012,11,10,12,15,5.30
2012,11,10,12,16,5.40
2012,11,10,12,17,5.40
2012,11,10,12,18,5.40
2012,11,10,12,19,5.40
2012,11,10,12,20,5.30
2012,11,10,12,21,5.30
2012,11,10,12,22,5.20
2012,11,10,12,23,5.20
2012,11,10,12,24,5.10
2012,11,10,12,25,5.10
2012,11,10,12,26,5.10
2012,11,10,12,27,5.10
2012,11,10,12,28,5.20
2012,11,10,12,29,5.20
2012,11,10,12,30,5.20
2012,11,10,12,31,5.30
2012,11,10,12,32,5.40
2012,11,10,12,33,5.40
2012,11,10,12,34,5.40
2012,11,10,12,35,5.30
2012,11,10,12,36,5.30
2012,11,10,12,37,5.30
2012,11,10,12,38,5.30
2012,11,10,12,39,5.40
2012,11,10,12,40,5.40
2012,11,10,12,41,5.50
2012,11,10,12,42,5.60
2012,11,10,12,43,5.50
2012,11,10,12,44,5.50
2012,11,10,12,45,5.60
2012,11,10,12,46,5.50
2012,11,10,12,47,5.50
2012,11,10,12,48,5.50
2012,11,10,12,49,5.40
2012,11,10,12,50,5.30
2012,11,10,12,51,5.20
2012,11,10,12,52,5.20
2012,11,10,12,53,5.20
2012,11,10,12,54,5.20
2012,11,10,12,55,5.20
2012,11,10,12,56,5.30
2012,11,10,12,57,5.30
2012,11,10,12,58,5.40
2012,11,10,12,59,5.40
2012,11,10,13,00,5.40
2012,11,10,13,01,5.40
2012,11,10,13,02,5.40
2012,11,10,13,03,5.40
2012,11,10,13,04,5.30
2012,11,10,13,05,5.30
2012,11,10,13,06,5.30
2012,11,10,13,07,5.30
2012,11,10,13,08,5.30
2012,11,10,13,09,5.30
2012,11,10,13,10,5.30
2012,11,10,13,11,5.30
2012,11,10,13,12,5.20
2012,11,10,13,13,5.20
2012,11,10,13,14,5.20
2012,11,10,13,15,5.20
2012,11,10,13,16,5.30
2012,11,10,13,17,5.30
2012,11,10,13,18,5.30
2012,11,10,13,19,5.40
2012,11,10,13,20,5.40
2012,11,10,13,21,5.40
2012,11,10,13,22,5.40
2012,11,10,13,23,5.40
2012,11,10,13,24,5.50
2012,11,10,13,25,5.50
2012,11,10,13,26,5.50
2012,11,10,13,27,5.50
2012,11,10,13,28,5.50
2012,11,10,13,29,5.60
2012,11,10,13,30,5.60
2012,11,10,13,31,5.60
2012,11,10,13,32,5.50
2012,11,10,13,33,5.60
2012,11,10,13,34,5.50
2012,11,10,13,35,5.50
2012,11,10,13,36,5.60
2012,11,10,13,37,5.60
2012,11,10,13,38,5.70
2012,11,10,13,39,5.70
2012,11,10,13,40,5.70
2012,11,10,13,41,5.60
2012,11,10,13,42,5.50
2012,11,10,13,43,5.50
2012,11,10,13,44,5.60
2012,11,10,13,45,5.60
2012,11,10,13,46,5.60
2012,11,10,13,47,5.60
2012,11,10,13,48,5.50
2012,11,10,13,49,5.50
2012,11,10,13,50,5.50
2012,11,10,13,51,5.50
2012,11,10,13,52,5.50
2012,11,10,13,53,5.50
2012,11,10,13,54,5.60
2012,11,10,13,55,5.60
2012,11,10,13,56,5.60
2012,11,10,13,57,5.60
2012,11,10,13,58,5.60
2012,11,10,13,59,5.60
2012,11,10,14,00,5.60
2012,11,10,14,01,5.60
2012,11,10,14,02,5.60
2012,11,10,14,03,5.60
2012,11,10,14,04,5.60
2012,11,10,14,05,5.70
2012,11,10,14,06,5.70
2012,11,10,14,07,5.60
2012,11,10,14,08,5.60
2012,11,10,14,09,5.60
2012,11,10,14,10,5.70
2012,11,10,14,11,5.70
2012,11,10,14,12,5.80
2012,11,10,14,13,5.80
2012,11,10,14,14,5.70
2012,11,10,14,15,5.60
2012,11,10,14,16,5.60
2012,11,10,14,17,5.60
2012,11,10,14,18,5.60
2012,11,10,14,19,5.60
2012,11,10,14,20,5.70
2012,11,10,14,21,5.70
2012,11,10,14,22,5.70
2012,11,10,14,23,5.70
2012,11,10,14,24,5.60
2012,11,10,14,25,5.60
2012,11,10,14,26,5.50
2012,11,10,14,27,5.50
2012,11,10,14,28,5.40
2012,11,10,14,29,5.40
2012,11,10,14,30,5.40
2012,11,10,14,31,5.40
2012,11,10,14,32,5.40
2012,11,10,14,33,5.40
2012,11,10,14,34,5.40
2012,11,10,14,35,5.40
2012,11,10,14,36,5.40
2012,11,10,14,37,5.40
2012,11,10,14,38,5.50
2012,11,10,14,39,5.50
2012,11,10,14,40,5.50
2012,11,10,14,41,5.50
2012,11,10,14,42,5.50
2012,11,10,14,43,5.40
2012,11,10,14,44,5.40
2012,11,10,14,45,5.40
2012,11,10,14,46,5.50
2012,11,10,14,47,5.50
2012,11,10,14,48,5.50
2012,11,10,14,49,5.60
2012,11,10,14,50,5.60
2012,11,10,14,51,5.70
2012,11,10,14,52,5.70
2012,11,10,14,53,5.70
2012,11,10,14,54,5.70
2012,11,10,14,55,5.80
2012,11,10,14,56,5.80
2012,11,10,14,57,5.80
2012,11,10,14,58,5.80
2012,11,10,14,59,5.80
2012,11,10,15,00,5.80
2012,11,10,15,01,5.80
2012,11,10,15,02,5.80
2012,11,10,15,03,5.80
2012,11,10,15,04,5.70
2012,11,10,15,05,5.60
2012,11,10,15,06,5.50
2012,11,10,15,07,5.50
2012,11,10,15,08,5.40
2012,11,10,15,09,5.40
2012,11,10,15,10,5.40
2012,11,10,15,11,5.40
2012,11,10,15,12,5.40
2012,11,10,15,13,5.40
2012,11,10,15,14,5.40
2012,11,10,15,15,5.40
2012,11,10,15,16,5.40
2012,11,10,15,17,5.40
2012,11,10,15,18,5.40
2012,11,10,15,19,5.50
2012,11,10,15,20,5.60
2012,11,10,15,21,5.50
2012,11,10,15,22,5.50
2012,11,10,15,23,5.40
2012,11,10,15,24,5.30
2012,11,10,15,25,5.20
2012,11,10,15,26,5.20
2012,11,10,15,27,5.20
2012,11,10,15,28,5.20
2012,11,10,15,29,5.20
2012,11,10,15,30,5.20
2012,11,10,15,31,5.20
2012,11,10,15,32,5.30
2012,11,10,15,33,5.30
2012,11,10,15,34,5.40
2012,11,10,15,35,5.40
2012,11,10,15,36,5.40
2012,11,10,15,37,5.40
2012,11,10,15,38,5.50
2012,11,10,15,39,5.50
2012,11,10,15,40,5.50
2012,11,10,15,41,5.50
2012,11,10,15,42,5.50
2012,11,10,15,43,5.40
2012,11,10,15,44,5.40
2012,11,10,15,45,5.30
2012,11,10,15,46,5.30
2012,11,10,15,47,5.30
2012,11,10,15,48,5.30
2012,11,10,15,49,5.30
2012,11,10,15,50,5.20
2012,11,10,15,51,5.20
2012,11,10,15,52,5.20
2012,11,10,15,53,5.10
2012,11,10,15,54,5.10
2012,11,10,15,55,5.10
2012,11,10,15,56,5.10
2012,11,10,15,57,5.10
2012,11,10,15,58,5.00
2012,11,10,15,59,5.00
2012,11,10,16,00,4.90
2012,11,10,16,01,4.90
2012,11,10,16,02,4.90
2012,11,10,16,03,4.80
2012,11,10,16,04,4.80
2012,11,10,16,05,4.70
2012,11,10,16,06,4.70
2012,11,10,16,07,4.60
2012,11,10,16,08,4.60
2012,11,10,16,09,4.50
2012,11,10,16,10,4.50
2012,11,10,16,11,4.40
2012,11,10,16,12,4.40
2012,11,10,16,13,4.30
2012,11,10,16,14,4.30
2012,11,10,16,15,4.20
2012,11,10,16,16,4.20
2012,11,10,16,17,4.10
2012,11,10,16,18,4.10
2012,11,10,16,19,4.10
2012,11,10,16,20,4.00
2012,11,10,16,21,4.00
2012,11,10,16,22,3.90
2012,11,10,16,23,3.80
2012,11,10,16,24,3.80
2012,11,10,16,25,3.70
2012,11,10,16,26,3.70
2012,11,10,16,27,3.60
2012,11,10,16,28,3.60
2012,11,10,16,29,3.60
2012,11,10,16,30,3.50
2012,11,10,16,31,3.40
2012,11,10,16,32,3.40
2012,11,10,16,33,3.40
2012,11,10,16,34,3.30
2012,11,10,16,35,3.30
2012,11,10,16,36,3.20
2012,11,10,16,37,3.20
2012,11,10,16,38,3.10
2012,11,10,16,39,3.10
2012,11,10,16,40,3.00
2012,11,10,16,41,2.90
2012,11,10,16,42,2.90
2012,11,10,16,43,2.80
2012,11,10,16,44,2.70
2012,11,10,16,45,2.60
2012,11,10,16,46,2.60
2012,11,10,16,47,2.50
2012,11,10,16,48,2.40
2012,11,10,16,49,2.40
2012,11,10,16,50,2.30
2012,11,10,16,51,2.20
2012,11,10,16,52,2.20
2012,11,10,16,53,2.10
2012,11,10,16,54,2.10
2012,11,10,16,55,2.00
2012,11,10,16,56,2.00
2012,11,10,16,57,1.90
2012,11,10,16,58,1.90
2012,11,10,16,59,1.90
2012,11,10,17,00,1.80
2012,11,10,17,01,1.80
2012,11,10,17,02,1.70
2012,11,10,17,03,1.70
2012,11,10,17,04,1.60
2012,11,10,17,05,1.60
2012,11,10,17,06,1.60
2012,11,10,17,07,1.50
2012,11,10,17,08,1.40
2012,11,10,17,09,1.40
2012,11,10,17,10,1.30
2012,11,10,17,11,1.30
2012,11,10,17,12,1.30
2012,11,10,17,13,1.30
2012,11,10,17,14,1.30
2012,11,10,17,15,1.20
2012,11,10,17,16,1.20
2012,11,10,17,17,1.20
2012,11,10,17,18,1.10
2012,11,10,17,19,1.10
2012,11,10,17,20,1.10
2012,11,10,17,21,1.00
2012,11,10,17,22,1.00
2012,11,10,17,23,0.90
2012,11,10,17,24,0.90
2012,11,10,17,25,0.90
2012,11,10,17,26,0.80
2012,11,10,17,27,0.80
2012,11,10,17,28,0.80
2012,11,10,17,29,0.70
2012,11,10,17,30,0.70
2012,11,10,17,31,0.70
2012,11,10,17,32,0.70
2012,11,10,17,33,0.60
2012,11,10,17,34,0.60
2012,11,10,17,35,0.60
2012,11,10,17,36,0.50
2012,11,10,17,37,0.50
2012,11,10,17,38,0.50
2012,11,10,17,39,0.40
2012,11,10,17,40,0.40
2012,11,10,17,41,0.40
2012,11,10,17,42,0.40
2012,11,10,17,43,0.30
2012,11,10,17,44,0.30
2012,11,10,17,45,0.30
2012,11,10,17,46,0.30